AAL3582 KORD-KEYW

Flight info

Callsign AAL3582
Flight time 2h 21m
Altitude 38000
Route CMSKY CARYN CYBIL PXV/N0456F370 HITMN Q19 BULZI KRAKN1
Aircraft A319/M-SDE3FGHIRWY/LB1

Departure

Time 2026-05-05 14:19
Airport Chicago O'Hare International Airport (KORD)

Arrival

Time 2026-05-05 16:40
Airport Key West International Airport (KEYW)
Time Latitude Longitude Altitude Speed Heading
2026-05-05 13:46 41.97637 -87.89689 667 ft 0 kts 27°
2026-05-05 14:09 41.97620 -87.89701 670 ft 3 kts 27°
2026-05-05 14:09 41.97602 -87.89713 670 ft 3 kts 27°
2026-05-05 14:10 41.97589 -87.89722 670 ft 2 kts 107°
2026-05-05 14:10 41.97591 -87.89729 669 ft 0 kts 110°
2026-05-05 14:12 41.97589 -87.89722 669 ft 3 kts 110°
2026-05-05 14:13 41.97573 -87.89665 667 ft 10 kts 110°
2026-05-05 14:13 41.97545 -87.89564 667 ft 10 kts 110°
2026-05-05 14:13 41.97513 -87.89526 667 ft 7 kts 175°
2026-05-05 14:13 41.97452 -87.89526 669 ft 10 kts 186°
2026-05-05 14:14 41.97382 -87.89553 668 ft 11 kts 206°
2026-05-05 14:14 41.97318 -87.89611 669 ft 10 kts 204°
2026-05-05 14:14 41.97258 -87.89573 667 ft 11 kts 144°
2026-05-05 14:14 41.97202 -87.89502 668 ft 12 kts 116°
2026-05-05 14:15 41.97196 -87.89387 669 ft 13 kts 89°
2026-05-05 14:15 41.97194 -87.89259 669 ft 14 kts 91°
2026-05-05 14:15 41.97195 -87.89118 669 ft 16 kts 89°
2026-05-05 14:15 41.97197 -87.88966 669 ft 17 kts 89°
2026-05-05 14:16 41.97196 -87.88805 669 ft 18 kts 90°
2026-05-05 14:16 41.97195 -87.88634 669 ft 19 kts 90°
2026-05-05 14:16 41.97195 -87.88453 669 ft 20 kts 90°
2026-05-05 14:16 41.97196 -87.88348 669 ft 1 kts 88°
2026-05-05 14:17 41.97198 -87.88273 669 ft 14 kts 88°
2026-05-05 14:17 41.97198 -87.88137 669 ft 15 kts 92°
2026-05-05 14:17 41.97143 -87.88036 669 ft 15 kts 165°
2026-05-05 14:17 41.97073 -87.88034 670 ft 15 kts 180°
2026-05-05 14:18 41.96969 -87.88036 671 ft 15 kts 186°
2026-05-05 14:18 41.96871 -87.88121 668 ft 29 kts 221°
2026-05-05 14:18 41.96481 -87.88578 670 ft 116 kts 221°
2026-05-05 14:18 41.95733 -87.89459 995 ft 150 kts 221°
2026-05-05 14:19 41.94873 -87.90313 1722 ft 158 kts 203°
2026-05-05 14:19 41.93770 -87.90487 2550 ft 164 kts 180°
2026-05-05 14:19 41.92557 -87.90411 3098 ft 185 kts 179°
2026-05-05 14:19 41.91196 -87.90218 3410 ft 208 kts 178°
2026-05-05 14:20 41.89672 -87.89952 3743 ft 233 kts 177°
2026-05-05 14:20 41.87973 -87.89686 4208 ft 257 kts 177°
2026-05-05 14:20 41.86139 -87.89422 4920 ft 270 kts 177°
2026-05-05 14:20 41.84255 -87.89139 5899 ft 273 kts 177°
2026-05-05 14:21 41.82374 -87.88838 6930 ft 272 kts 178°
2026-05-05 14:21 41.80496 -87.88661 7918 ft 270 kts 183°
2026-05-05 14:21 41.78609 -87.88590 8854 ft 272 kts 185°
2026-05-05 14:21 41.76709 -87.88556 9783 ft 273 kts 186°
2026-05-05 14:22 41.74181 -87.88523 10861 ft 283 kts 187°
2026-05-05 14:22 41.72813 -87.88510 11077 ft 299 kts 187°
2026-05-05 14:22 41.70644 -87.88489 11336 ft 323 kts 186°
2026-05-05 14:22 41.68321 -87.88456 11560 ft 346 kts 186°
2026-05-05 14:23 41.65878 -87.88404 12134 ft 354 kts 186°
2026-05-05 14:23 41.63396 -87.88337 12859 ft 359 kts 186°
2026-05-05 14:23 41.60889 -87.88260 13550 ft 363 kts 186°
2026-05-05 14:23 41.58347 -87.88181 14237 ft 367 kts 186°
2026-05-05 14:24 41.55783 -87.88105 14884 ft 371 kts 186°
2026-05-05 14:24 41.53175 -87.88031 15488 ft 376 kts 186°
2026-05-05 14:24 41.50543 -87.87963 16087 ft 381 kts 187°
2026-05-05 14:24 41.47883 -87.87895 16687 ft 385 kts 186°
2026-05-05 14:25 41.45223 -87.87826 17271 ft 390 kts 187°
2026-05-05 14:25 41.42496 -87.87759 17839 ft 394 kts 187°
2026-05-05 14:25 41.39763 -87.87869 18364 ft 393 kts 192°
2026-05-05 14:25 41.37020 -87.88126 18895 ft 397 kts 192°
2026-05-05 14:26 41.34253 -87.88390 19391 ft 401 kts 192°
2026-05-05 14:26 41.31461 -87.88658 19888 ft 404 kts 192°
2026-05-05 14:26 41.28639 -87.88926 20365 ft 408 kts 192°
2026-05-05 14:26 41.25795 -87.89191 20821 ft 412 kts 191°
2026-05-05 14:27 41.22895 -87.89206 21248 ft 421 kts 186°
2026-05-05 14:27 41.19958 -87.89108 21678 ft 424 kts 186°
2026-05-05 14:27 41.17003 -87.89011 22098 ft 427 kts 186°
2026-05-05 14:27 41.14017 -87.88916 22499 ft 430 kts 186°
2026-05-05 14:28 41.11015 -87.88824 22883 ft 433 kts 186°
2026-05-05 14:28 41.07987 -87.88734 23285 ft 436 kts 186°
2026-05-05 14:28 41.04941 -87.88649 23667 ft 440 kts 186°
2026-05-05 14:28 41.01870 -87.88560 24037 ft 443 kts 186°
2026-05-05 14:29 40.98778 -87.88469 24397 ft 446 kts 186°
2026-05-05 14:29 40.95663 -87.88374 24771 ft 448 kts 186°
2026-05-05 14:29 40.92537 -87.88278 25140 ft 450 kts 186°
2026-05-05 14:29 40.89395 -87.88182 25511 ft 451 kts 186°
2026-05-05 14:30 40.86258 -87.88087 25865 ft 453 kts 186°
2026-05-05 14:30 40.83101 -87.87990 26216 ft 454 kts 186°
2026-05-05 14:30 40.79930 -87.87894 26558 ft 456 kts 186°
2026-05-05 14:30 40.76753 -87.87802 26887 ft 457 kts 186°
2026-05-05 14:31 40.73582 -87.87710 27278 ft 456 kts 186°
2026-05-05 14:31 40.70416 -87.87611 27750 ft 454 kts 186°
2026-05-05 14:31 40.67262 -87.87508 28224 ft 452 kts 186°
2026-05-05 14:31 40.64125 -87.87408 28698 ft 449 kts 186°
2026-05-05 14:32 40.61009 -87.87314 29171 ft 447 kts 186°
2026-05-05 14:32 40.57913 -87.87218 29649 ft 444 kts 187°
2026-05-05 14:32 40.54823 -87.87128 30132 ft 444 kts 187°
2026-05-05 14:32 40.51737 -87.87045 30673 ft 442 kts 187°
2026-05-05 14:33 40.48685 -87.86959 31152 ft 439 kts 188°
2026-05-05 14:33 40.45634 -87.86870 31567 ft 437 kts 188°
2026-05-05 14:33 40.42591 -87.86781 31927 ft 438 kts 188°
2026-05-05 14:33 40.39547 -87.86690 32299 ft 438 kts 188°
2026-05-05 14:34 40.36504 -87.86593 32664 ft 437 kts 189°
2026-05-05 14:34 40.33459 -87.86498 33010 ft 437 kts 189°
2026-05-05 14:34 40.30418 -87.86404 33371 ft 437 kts 189°
2026-05-05 14:34 40.27379 -87.86291 33725 ft 438 kts 189°
2026-05-05 14:35 40.24339 -87.86157 34087 ft 437 kts 190°
2026-05-05 14:35 40.21292 -87.86011 34385 ft 439 kts 190°
2026-05-05 14:35 40.18236 -87.85866 34651 ft 441 kts 190°
2026-05-05 14:35 40.15163 -87.85727 34918 ft 442 kts 190°
2026-05-05 14:36 40.12084 -87.85590 35169 ft 444 kts 190°
2026-05-05 14:36 40.08989 -87.85448 35395 ft 446 kts 190°
2026-05-05 14:36 40.05885 -87.85307 35671 ft 447 kts 190°
2026-05-05 14:36 40.02765 -87.85169 35915 ft 449 kts 190°
2026-05-05 14:37 39.99643 -87.85032 36145 ft 450 kts 191°
2026-05-05 14:37 39.96500 -87.84898 36351 ft 453 kts 191°
2026-05-05 14:37 39.93349 -87.84766 36563 ft 454 kts 191°
2026-05-05 14:37 39.90186 -87.84628 36793 ft 455 kts 191°
2026-05-05 14:38 39.87016 -87.84490 37032 ft 455 kts 191°
2026-05-05 14:38 39.83858 -87.84355 37310 ft 454 kts 191°
2026-05-05 14:38 39.80706 -87.84217 37552 ft 454 kts 191°
2026-05-05 14:38 39.77546 -87.84078 37727 ft 456 kts 191°
2026-05-05 14:39 39.74369 -87.83939 37862 ft 457 kts 191°
2026-05-05 14:39 39.71174 -87.83805 37898 ft 463 kts 191°
2026-05-05 14:39 39.64713 -87.83533 37895 ft 467 kts 191°
2026-05-05 14:40 39.58201 -87.83241 37898 ft 468 kts 191°
2026-05-05 14:40 39.51738 -87.82954 37894 ft 468 kts 190°
2026-05-05 14:41 39.45222 -87.82678 37900 ft 468 kts 191°
2026-05-05 14:41 39.38704 -87.82393 37887 ft 469 kts 191°
2026-05-05 14:42 39.32183 -87.82122 37890 ft 469 kts 191°
2026-05-05 14:42 39.25654 -87.81837 37887 ft 470 kts 191°
2026-05-05 14:43 39.19124 -87.81560 37876 ft 469 kts 191°
2026-05-05 14:43 39.12597 -87.81299 37841 ft 470 kts 191°
2026-05-05 14:44 39.06065 -87.80997 37855 ft 471 kts 191°
2026-05-05 14:44 38.99533 -87.80703 37841 ft 469 kts 191°
2026-05-05 14:45 38.92961 -87.80429 37852 ft 473 kts 191°
2026-05-05 14:45 38.86342 -87.80178 37867 ft 476 kts 191°
2026-05-05 14:46 38.79704 -87.79884 37875 ft 477 kts 191°
2026-05-05 14:46 38.73077 -87.79589 37873 ft 477 kts 192°
2026-05-05 14:47 38.66433 -87.79310 37876 ft 478 kts 192°
2026-05-05 14:47 38.59785 -87.79030 37875 ft 479 kts 192°
2026-05-05 14:48 38.53123 -87.78751 37868 ft 480 kts 192°
2026-05-05 14:48 38.46434 -87.78475 37874 ft 481 kts 192°
2026-05-05 14:49 38.39749 -87.78194 37874 ft 481 kts 192°
2026-05-05 14:49 38.33047 -87.77910 37882 ft 482 kts 192°
2026-05-05 14:50 38.26345 -87.77630 37873 ft 483 kts 192°
2026-05-05 14:50 38.19665 -87.77348 37882 ft 484 kts 192°
2026-05-05 14:51 38.12938 -87.77071 37880 ft 484 kts 192°
2026-05-05 14:51 38.06154 -87.76795 37887 ft 484 kts 192°
2026-05-05 14:52 37.99463 -87.76519 37887 ft 485 kts 192°
2026-05-05 14:52 37.92631 -87.75479 38104 ft 510 kts 177°
2026-05-05 14:53 37.89228 -87.73994 38329 ft 528 kts 166°
2026-05-05 14:53 37.85865 -87.72044 38517 ft 532 kts 165°
2026-05-05 14:53 37.82518 -87.70024 38707 ft 534 kts 163°
2026-05-05 14:53 37.79192 -87.67956 38847 ft 535 kts 163°
2026-05-05 14:54 37.72481 -87.63730 38891 ft 542 kts 163°
2026-05-05 14:54 37.65716 -87.59527 38897 ft 542 kts 163°
2026-05-05 14:55 37.58933 -87.55380 38913 ft 540 kts 163°
2026-05-05 14:55 37.52156 -87.51268 38888 ft 541 kts 163°
2026-05-05 14:56 37.45357 -87.47139 38934 ft 544 kts 162°
2026-05-05 14:56 37.38555 -87.42957 38943 ft 546 kts 163°
2026-05-05 14:57 37.31727 -87.38823 38937 ft 545 kts 163°
2026-05-05 14:57 37.24895 -87.34701 38938 ft 544 kts 163°
2026-05-05 14:58 37.18086 -87.30575 38937 ft 545 kts 163°
2026-05-05 14:58 37.11245 -87.26435 38944 ft 545 kts 163°
2026-05-05 14:59 37.04386 -87.22333 38956 ft 546 kts 163°
2026-05-05 14:59 36.97591 -87.18265 38938 ft 545 kts 162°
2026-05-05 15:00 36.91857 -87.14809 38926 ft 546 kts 162°
2026-05-05 15:00 36.83941 -87.10075 38914 ft 544 kts 161°
2026-05-05 15:01 36.77136 -87.06005 38905 ft 543 kts 162°
2026-05-05 15:01 36.70314 -87.01936 38942 ft 545 kts 163°
2026-05-05 15:02 36.63444 -86.97861 38956 ft 547 kts 161°
2026-05-05 15:02 36.56576 -86.93758 38953 ft 549 kts 162°
2026-05-05 15:03 36.49683 -86.89671 38973 ft 548 kts 161°
2026-05-05 15:03 36.42806 -86.85605 38973 ft 546 kts 161°
2026-05-05 15:04 36.35925 -86.81548 38979 ft 547 kts 164°
2026-05-05 15:04 36.29071 -86.77523 39016 ft 544 kts 164°
2026-05-05 15:05 36.18847 -86.71516 39021 ft 541 kts 164°
2026-05-05 15:06 36.13186 -86.68268 39017 ft 535 kts 169°
2026-05-05 15:06 36.06248 -86.65123 39028 ft 531 kts 171°
2026-05-05 15:07 35.99301 -86.61995 39010 ft 531 kts 171°
2026-05-05 15:07 35.92348 -86.58866 39010 ft 532 kts 171°
2026-05-05 15:08 35.85391 -86.55734 39001 ft 534 kts 171°
2026-05-05 15:08 35.78401 -86.52595 39005 ft 534 kts 171°
2026-05-05 15:09 35.71418 -86.49479 39008 ft 534 kts 171°
2026-05-05 15:09 35.64431 -86.46356 39001 ft 533 kts 170°
2026-05-05 15:10 35.57447 -86.43236 39002 ft 534 kts 171°
2026-05-05 15:10 35.50467 -86.40124 39001 ft 534 kts 171°
2026-05-05 15:11 35.43482 -86.37027 39018 ft 535 kts 171°
2026-05-05 15:11 35.36499 -86.33935 39010 ft 534 kts 171°
2026-05-05 15:12 35.29515 -86.30850 39028 ft 534 kts 171°
2026-05-05 15:12 35.22526 -86.27763 39035 ft 534 kts 171°
2026-05-05 15:13 35.15546 -86.24685 39042 ft 534 kts 171°
2026-05-05 15:13 35.08558 -86.21609 39045 ft 534 kts 171°
2026-05-05 15:14 35.01562 -86.18533 39051 ft 534 kts 171°
2026-05-05 15:14 34.94577 -86.15461 39049 ft 533 kts 171°
2026-05-05 15:15 34.87590 -86.12403 39053 ft 534 kts 170°
2026-05-05 15:15 34.80590 -86.09346 39055 ft 535 kts 170°
2026-05-05 15:16 34.73634 -86.06319 39065 ft 535 kts 170°
2026-05-05 15:16 34.66618 -86.03270 39064 ft 536 kts 170°
2026-05-05 15:17 34.59610 -86.00142 39068 ft 538 kts 169°
2026-05-05 15:17 34.52619 -85.96900 39068 ft 538 kts 168°
2026-05-05 15:18 34.45621 -85.93654 39062 ft 539 kts 168°
2026-05-05 15:18 34.38603 -85.90450 39070 ft 538 kts 168°
2026-05-05 15:19 34.31597 -85.87274 39074 ft 538 kts 168°
2026-05-05 15:19 34.24581 -85.84093 39071 ft 539 kts 168°
2026-05-05 15:20 34.17563 -85.80910 39077 ft 538 kts 168°
2026-05-05 15:20 34.10562 -85.77728 39083 ft 538 kts 169°
2026-05-05 15:21 34.03545 -85.74564 39085 ft 538 kts 168°
2026-05-05 15:21 33.96530 -85.71400 39088 ft 538 kts 168°
2026-05-05 15:22 33.89507 -85.68237 39100 ft 539 kts 168°
2026-05-05 15:22 33.82482 -85.65085 39101 ft 538 kts 168°
2026-05-05 15:23 33.75468 -85.61942 39098 ft 538 kts 168°
2026-05-05 15:23 33.68440 -85.58797 39103 ft 539 kts 168°
2026-05-05 15:24 33.61417 -85.55652 39108 ft 539 kts 168°
2026-05-05 15:24 33.54394 -85.52523 39114 ft 538 kts 168°
2026-05-05 15:25 33.47400 -85.49472 39118 ft 538 kts 169°
2026-05-05 15:25 33.40361 -85.46426 39123 ft 538 kts 168°
2026-05-05 15:26 33.33316 -85.43361 39131 ft 539 kts 168°
2026-05-05 15:26 33.26268 -85.40287 39139 ft 539 kts 168°
2026-05-05 15:27 33.19227 -85.37220 39131 ft 539 kts 168°
2026-05-05 15:27 33.12178 -85.34158 39135 ft 539 kts 168°
2026-05-05 15:28 33.05137 -85.31109 39133 ft 538 kts 168°
2026-05-05 15:28 32.98099 -85.28066 39131 ft 538 kts 168°
2026-05-05 15:29 32.91054 -85.25027 39139 ft 538 kts 168°
2026-05-05 15:29 32.84006 -85.21997 39132 ft 538 kts 168°
2026-05-05 15:30 32.76963 -85.18976 39132 ft 538 kts 168°
2026-05-05 15:30 32.69919 -85.15950 39137 ft 538 kts 168°
2026-05-05 15:31 32.62878 -85.12926 39141 ft 538 kts 168°
2026-05-05 15:31 32.55838 -85.09907 39142 ft 538 kts 168°
2026-05-05 15:32 32.48789 -85.06897 39133 ft 538 kts 168°
2026-05-05 15:32 32.41739 -85.03897 39126 ft 538 kts 168°
2026-05-05 15:33 32.34700 -85.00897 39122 ft 538 kts 168°
2026-05-05 15:33 32.27656 -84.97893 39115 ft 539 kts 168°
2026-05-05 15:34 32.20601 -84.94896 39112 ft 538 kts 168°
2026-05-05 15:34 32.13547 -84.91918 39114 ft 539 kts 168°
2026-05-05 15:35 32.06482 -84.88936 39118 ft 539 kts 168°
2026-05-05 15:35 31.99416 -84.85950 39119 ft 540 kts 168°
2026-05-05 15:36 31.92347 -84.82956 39123 ft 540 kts 168°
2026-05-05 15:36 31.85275 -84.80008 39134 ft 538 kts 170°
2026-05-05 15:37 31.78145 -84.77489 39135 ft 533 kts 174°
2026-05-05 15:37 31.70974 -84.75265 39131 ft 532 kts 174°
2026-05-05 15:38 31.63814 -84.73000 39132 ft 533 kts 173°
2026-05-05 15:38 31.56716 -84.70641 39131 ft 534 kts 173°
2026-05-05 15:39 31.49567 -84.68230 39138 ft 534 kts 173°
2026-05-05 15:39 31.42433 -84.65850 39131 ft 533 kts 173°
2026-05-05 15:40 31.35283 -84.63494 39134 ft 533 kts 173°
2026-05-05 15:40 31.28321 -84.60208 39127 ft 546 kts 159°
2026-05-05 15:41 31.21520 -84.56225 39129 ft 547 kts 159°
2026-05-05 15:41 31.14724 -84.52264 39140 ft 547 kts 160°
2026-05-05 15:42 31.07911 -84.48303 39139 ft 547 kts 160°
2026-05-05 15:42 31.01090 -84.44345 39146 ft 547 kts 160°
2026-05-05 15:43 30.94275 -84.40388 39146 ft 547 kts 160°
2026-05-05 15:43 30.87466 -84.36442 39149 ft 547 kts 160°
2026-05-05 15:44 30.80655 -84.32505 39151 ft 546 kts 159°
2026-05-05 15:44 30.73853 -84.28582 39140 ft 546 kts 159°
2026-05-05 15:45 30.67045 -84.24660 39147 ft 546 kts 159°
2026-05-05 15:45 30.60242 -84.20749 39144 ft 546 kts 159°
2026-05-05 15:46 30.53443 -84.16842 39136 ft 545 kts 159°
2026-05-05 15:46 30.46645 -84.12941 39132 ft 545 kts 159°
2026-05-05 15:47 30.39841 -84.09046 39131 ft 545 kts 159°
2026-05-05 15:47 30.33133 -84.05056 39129 ft 548 kts 156°
2026-05-05 15:48 30.26523 -84.00626 39131 ft 549 kts 153°
2026-05-05 15:48 30.19971 -83.96079 39135 ft 549 kts 154°
2026-05-05 15:49 30.13372 -83.91640 39138 ft 549 kts 155°
2026-05-05 15:49 30.06731 -83.87288 39135 ft 548 kts 155°
2026-05-05 15:50 30.00091 -83.82958 39133 ft 549 kts 155°
2026-05-05 15:50 29.93461 -83.78602 39136 ft 549 kts 155°
2026-05-05 15:51 29.86835 -83.74216 39143 ft 549 kts 155°
2026-05-05 15:51 29.81325 -83.70576 39146 ft 549 kts 155°
2026-05-05 15:52 29.74691 -83.66231 39139 ft 549 kts 155°
2026-05-05 15:52 29.68042 -83.61898 39130 ft 549 kts 155°
2026-05-05 15:53 29.61399 -83.57553 39136 ft 549 kts 155°
2026-05-05 15:53 29.54776 -83.53216 39127 ft 549 kts 155°
2026-05-05 15:54 29.48128 -83.48881 39125 ft 549 kts 155°
2026-05-05 15:54 29.41484 -83.44566 39127 ft 549 kts 155°
2026-05-05 15:55 29.34843 -83.40247 39124 ft 548 kts 155°
2026-05-05 15:55 29.28255 -83.35962 39124 ft 548 kts 155°
2026-05-05 15:56 29.21381 -83.32398 39122 ft 540 kts 165°
2026-05-05 15:56 29.14336 -83.29362 39124 ft 541 kts 165°
2026-05-05 15:57 29.07297 -83.26324 39125 ft 541 kts 165°
2026-05-05 15:57 29.00257 -83.23292 39127 ft 540 kts 165°
2026-05-05 15:58 28.93226 -83.20258 39131 ft 540 kts 165°
2026-05-05 15:58 28.86190 -83.17234 39135 ft 540 kts 165°
2026-05-05 15:59 28.79144 -83.14214 39138 ft 541 kts 165°
2026-05-05 15:59 28.72106 -83.11186 39140 ft 541 kts 165°
2026-05-05 16:00 28.65074 -83.08169 39137 ft 540 kts 165°
2026-05-05 16:00 28.58029 -83.05169 39135 ft 540 kts 165°
2026-05-05 16:01 28.50997 -83.02173 39128 ft 540 kts 165°
2026-05-05 16:01 28.43964 -82.99164 39126 ft 540 kts 165°
2026-05-05 16:02 28.36916 -82.96160 39126 ft 540 kts 165°
2026-05-05 16:02 28.29880 -82.93393 39117 ft 534 kts 173°
2026-05-05 16:03 28.22575 -82.92046 39120 ft 527 kts 180°
2026-05-05 16:03 28.15311 -82.90884 39118 ft 527 kts 179°
2026-05-05 16:04 28.08044 -82.89709 39114 ft 528 kts 179°
2026-05-05 16:04 28.00818 -82.88539 39114 ft 528 kts 179°
2026-05-05 16:05 27.93542 -82.87368 39120 ft 528 kts 179°
2026-05-05 16:05 27.86280 -82.86209 39123 ft 527 kts 179°
2026-05-05 16:06 27.79011 -82.85047 39116 ft 527 kts 179°
2026-05-05 16:06 27.71755 -82.83843 39111 ft 528 kts 178°
2026-05-05 16:07 27.64505 -82.82451 39104 ft 529 kts 176°
2026-05-05 16:07 27.57273 -82.81001 39096 ft 528 kts 176°
2026-05-05 16:08 27.50029 -82.79594 39101 ft 528 kts 177°
2026-05-05 16:08 27.42779 -82.78231 39109 ft 528 kts 177°
2026-05-05 16:09 27.35536 -82.76874 39111 ft 528 kts 177°
2026-05-05 16:09 27.28289 -82.75504 39112 ft 527 kts 177°
2026-05-05 16:10 27.21059 -82.74134 39111 ft 527 kts 177°
2026-05-05 16:10 27.13830 -82.72770 39106 ft 527 kts 177°
2026-05-05 16:11 27.06604 -82.71407 39103 ft 526 kts 176°
2026-05-05 16:11 26.95844 -82.68848 39092 ft 535 kts 163°
2026-05-05 16:12 26.92439 -82.67127 39091 ft 539 kts 154°
2026-05-05 16:12 26.86290 -82.62292 39090 ft 541 kts 143°
2026-05-05 16:13 26.77436 -82.54571 39088 ft 540 kts 143°
2026-05-05 16:13 26.71502 -82.49415 39087 ft 540 kts 143°
2026-05-05 16:14 26.59632 -82.39109 39093 ft 540 kts 143°
2026-05-05 16:15 26.47770 -82.28825 39092 ft 539 kts 143°
2026-05-05 16:16 26.35929 -82.18588 39091 ft 538 kts 143°
2026-05-05 16:17 26.27052 -82.10941 39086 ft 537 kts 143°
2026-05-05 16:18 26.18181 -82.03316 39084 ft 537 kts 143°
2026-05-05 16:19 26.09304 -81.95694 39081 ft 537 kts 143°
2026-05-05 16:19 26.00368 -81.88027 37427 ft 552 kts 143°
2026-05-05 16:20 25.94338 -81.82873 36334 ft 543 kts 143°
2026-05-05 16:20 25.88310 -81.77851 34846 ft 541 kts 149°
2026-05-05 16:21 25.81883 -81.73431 33058 ft 546 kts 150°
2026-05-05 16:22 25.72177 -81.66752 30422 ft 545 kts 150°
2026-05-05 16:22 25.65761 -81.62335 28556 ft 541 kts 151°
2026-05-05 16:23 25.59359 -81.57951 26358 ft 540 kts 151°
2026-05-05 16:23 25.56124 -81.55860 25077 ft 534 kts 157°
2026-05-05 16:23 25.49170 -81.53815 22143 ft 502 kts 182°
2026-05-05 16:24 25.45746 -81.53920 20880 ft 484 kts 192°
2026-05-05 16:24 25.42515 -81.54665 19604 ft 468 kts 202°
2026-05-05 16:24 25.36598 -81.57329 17395 ft 452 kts 208°
2026-05-05 16:25 25.33720 -81.58660 16281 ft 445 kts 207°
2026-05-05 16:25 25.28109 -81.61229 14234 ft 429 kts 206°
2026-05-05 16:25 25.25377 -81.62481 13261 ft 421 kts 206°
2026-05-05 16:26 25.20154 -81.64892 11878 ft 393 kts 205°
2026-05-05 16:26 25.15291 -81.67132 11010 ft 356 kts 205°
2026-05-05 16:27 25.13076 -81.68150 10882 ft 334 kts 205°
2026-05-05 16:27 25.10998 -81.69108 10756 ft 314 kts 205°
2026-05-05 16:27 25.09039 -81.70014 10590 ft 299 kts 205°
2026-05-05 16:27 25.07146 -81.70889 10255 ft 291 kts 205°
2026-05-05 16:28 25.05282 -81.71748 10016 ft 290 kts 205°
2026-05-05 16:28 25.03442 -81.72597 9986 ft 278 kts 205°
2026-05-05 16:28 25.01692 -81.73402 10013 ft 270 kts 205°
2026-05-05 16:28 24.99970 -81.74195 9907 ft 269 kts 205°
2026-05-05 16:29 24.98243 -81.74991 9573 ft 268 kts 205°
2026-05-05 16:29 24.96527 -81.75782 9277 ft 267 kts 205°
2026-05-05 16:29 24.94823 -81.76566 8988 ft 264 kts 204°
2026-05-05 16:29 24.93129 -81.77344 8706 ft 263 kts 204°
2026-05-05 16:30 24.91451 -81.78113 8425 ft 261 kts 204°
2026-05-05 16:30 24.89782 -81.78879 8146 ft 259 kts 204°
2026-05-05 16:30 24.88136 -81.79674 7867 ft 257 kts 210°
2026-05-05 16:30 24.86624 -81.80719 7595 ft 256 kts 214°
2026-05-05 16:31 24.85134 -81.81783 7323 ft 255 kts 214°
2026-05-05 16:31 24.83648 -81.82836 7048 ft 254 kts 214°
2026-05-05 16:31 24.82162 -81.83885 6773 ft 253 kts 213°
2026-05-05 16:31 24.80686 -81.84927 6503 ft 252 kts 213°
2026-05-05 16:32 24.79213 -81.85967 6235 ft 251 kts 213°
2026-05-05 16:32 24.77749 -81.87002 5965 ft 250 kts 213°
2026-05-05 16:32 24.76289 -81.88034 5695 ft 248 kts 213°
2026-05-05 16:32 24.74855 -81.89045 5436 ft 248 kts 213°
2026-05-05 16:33 24.73391 -81.90080 5168 ft 247 kts 213°
2026-05-05 16:33 24.71946 -81.91105 4898 ft 246 kts 213°
2026-05-05 16:33 24.70557 -81.92089 4772 ft 236 kts 213°
2026-05-05 16:33 24.69209 -81.93042 4584 ft 226 kts 213°
2026-05-05 16:34 24.67893 -81.93971 4453 ft 225 kts 213°
2026-05-05 16:34 24.66603 -81.94880 4339 ft 216 kts 213°
2026-05-05 16:34 24.65346 -81.95765 4241 ft 214 kts 213°
2026-05-05 16:34 24.64043 -81.96549 4160 ft 214 kts 201°
2026-05-05 16:35 24.62584 -81.96879 3986 ft 215 kts 182°
2026-05-05 16:35 24.61104 -81.96863 3744 ft 209 kts 180°
2026-05-05 16:35 24.59683 -81.96842 3531 ft 200 kts 180°
2026-05-05 16:35 24.58331 -81.96685 3422 ft 193 kts 164°
2026-05-05 16:36 24.57119 -81.96065 3320 ft 193 kts 145°
2026-05-05 16:36 24.56165 -81.95034 3177 ft 193 kts 125°
2026-05-05 16:36 24.55581 -81.93712 2984 ft 193 kts 105°
2026-05-05 16:36 24.55435 -81.92249 2755 ft 194 kts 89°
2026-05-05 16:37 24.55458 -81.90754 2505 ft 197 kts 89°
2026-05-05 16:37 24.55482 -81.89257 2239 ft 194 kts 89°
2026-05-05 16:37 24.55494 -81.87797 1990 ft 189 kts 89°
2026-05-05 16:37 24.55504 -81.86383 1742 ft 182 kts 89°
2026-05-05 16:38 24.55518 -81.85024 1497 ft 174 kts 89°
2026-05-05 16:38 24.55531 -81.83746 1287 ft 159 kts 88°
2026-05-05 16:38 24.55547 -81.82588 1080 ft 145 kts 88°
2026-05-05 16:38 24.55555 -81.81505 894 ft 139 kts 89°
2026-05-05 16:39 24.55563 -81.80452 719 ft 137 kts 88°
2026-05-05 16:39 24.55572 -81.79410 536 ft 135 kts 88°
2026-05-05 16:39 24.55589 -81.78381 333 ft 135 kts 87°
2026-05-05 16:39 24.55609 -81.77352 159 ft 134 kts 88°
2026-05-05 16:40 24.55610 -81.76335 13 ft 128 kts 87°
2026-05-05 16:40 24.55619 -81.75589 15 ft 57 kts 89°
2026-05-05 16:40 24.55621 -81.75390 14 ft 35 kts 91°
2026-05-05 16:40 24.55619 -81.75276 13 ft 12 kts 90°
2026-05-05 16:41 24.55594 -81.75242 15 ft 7 kts 161°
2026-05-05 16:41 24.55542 -81.75253 13 ft 9 kts 227°
2026-05-05 16:41 24.55529 -81.75321 13 ft 8 kts 246°
2026-05-05 16:41 24.55508 -81.75321 12 ft 1 kts 173°
2026-05-05 16:42 24.55494 -81.75326 12 ft 3 kts 207°
2026-05-05 16:42 24.55466 -81.75330 12 ft 5 kts 187°
2026-05-05 16:42 24.55459 -81.75333 12 ft 1 kts 207°
2026-05-05 16:42 24.55444 -81.75343 13 ft 0 kts 211°
2026-05-05 16:43 24.55442 -81.75344 13 ft 0 kts 212°